Weather History for Yankton, SD

Change the Weather History Date:

Friday, November 30, 2012

  Actual Average Record
Temperature  
Mean Temperature 28 °F -  
Max Temperature 37 °F 38 °F 60 °F (1973)
Min Temperature 19 °F 19 °F -11 °F (1964)
Degree Days  
Heating Degree Days 37    
Moisture  
Dew Point 24 °F    
Average Humidity 81    
Maximum Humidity 100    
Minimum Humidity 65    
Precipitation  
Precipitation 0.00 in - - ()
Sea Level Pressure  
Sea Level Pressure 30.02 in    
Wind  
Wind Speed 8 mph (ENE)    
Max Wind Speed 13 mph    
Max Gust Speed -    
Visibility 7 miles    
Events      
Averages and records for this station are not official NWS values.
T = Trace of Precipitation, MM = Missing Value Source: NWS Daily Summary

Daily Weather History Graph

Daily Weather History Graph

Search for Another Location

Airport:

Trip Planner

Search our weather history database for the weather conditions in past years. The results will help you decide how hot, cold, wet, or windy it might be!

Date:

Astronomy

Nov. 30, 2012 Rise Set
Actual Time 7:40 AM CST 4:56 PM CST
Civil Twilight 7:08 AM CST 5:28 PM CST
Nautical Twilight 6:33 AM CST 6:03 PM CST
Astronomical Twilight 5:59 AM CST 6:37 PM CST
Moon 6:52 PM CST (11/30) 9:12 AM CST (11/30)
Length of Visible Light 10h 19m
Length of Day
9h 16m
Waning Gibbous, 96% of the Moon is Illuminated
Nov 30
Waning Gibbous
Dec 6
Last Quarter
Dec 13
New
Dec 19
First Quarter
Dec 28
Full

Hourly Weather History & Observations

Time (CST) Temp. Windchill Dew Point Humidity Pressure Visibility Wind Dir Wind Speed Gust Speed Precip Events Conditions
12:15 AM 26.6 °F 17.5 °F 23.0 °F 86% 29.96 in 9.0 mi WNW 9.2 mph - N/A   Clear
12:35 AM 26.6 °F 17.5 °F 24.8 °F 93% 29.97 in 10.0 mi WNW 9.2 mph - N/A   Clear
12:55 AM 26.6 °F 15.7 °F 23.0 °F 86% 29.98 in 9.0 mi NW 12.7 mph - N/A   Clear
1:15 AM 26.6 °F 15.7 °F 21.2 °F 80% 29.99 in 10.0 mi WNW 12.7 mph - N/A   Clear
1:35 AM 26.6 °F 17.5 °F 23.0 °F 86% 30.00 in 10.0 mi WNW 9.2 mph - N/A   Clear
1:55 AM 24.8 °F 14.6 °F 21.2 °F 86% 30.01 in 10.0 mi WNW 10.4 mph - N/A   Clear
2:15 AM 24.8 °F 15.3 °F 21.2 °F 86% 30.02 in 10.0 mi WNW 9.2 mph - N/A   Clear
2:35 AM 24.8 °F 14.6 °F 21.2 °F 86% 30.03 in 10.0 mi WNW 10.4 mph - N/A   Clear
2:55 AM 24.8 °F 14.0 °F 21.2 °F 86% 30.04 in 9.0 mi WNW 11.5 mph - N/A   Clear
3:15 AM 24.8 °F 14.6 °F 21.2 °F 86% 30.04 in 10.0 mi WNW 10.4 mph - N/A   Clear
3:35 AM 24.8 °F 15.3 °F 21.2 °F 86% 30.05 in 8.0 mi WNW 9.2 mph - N/A   Clear
3:55 AM 24.8 °F 14.6 °F 21.2 °F 86% 30.05 in 8.0 mi WNW 10.4 mph - N/A   Clear
4:15 AM 24.8 °F 14.0 °F 21.2 °F 86% 30.06 in 8.0 mi WNW 11.5 mph - N/A   Clear
4:35 AM 23.0 °F 13.1 °F 19.4 °F 86% 30.06 in 7.0 mi WNW 9.2 mph - N/A   Clear
4:55 AM 23.0 °F 13.1 °F 19.4 °F 86% 30.06 in 7.0 mi WNW 9.2 mph - N/A   Clear
5:15 AM 23.0 °F 12.4 °F 21.2 °F 93% 30.06 in 7.0 mi WNW 10.4 mph - N/A   Clear
5:35 AM 21.2 °F 11.7 °F 19.4 °F 93% 30.07 in 6.0 mi WNW 8.1 mph - N/A   Clear
5:55 AM 21.2 °F 10.9 °F 19.4 °F 93% 30.07 in 6.0 mi WNW 9.2 mph - N/A   Clear
6:15 AM 21.2 °F 10.9 °F 19.4 °F 93% 30.08 in 6.0 mi WNW 9.2 mph - N/A   Clear
6:35 AM 21.2 °F 9.5 °F 17.6 °F 86% 30.08 in 5.0 mi NW 11.5 mph - N/A   Clear
6:55 AM 19.4 °F 7.2 °F 17.6 °F 93% 30.08 in 5.0 mi NW 11.5 mph - N/A   Clear
7:15 AM 19.4 °F 7.9 °F 17.6 °F 93% 30.08 in 5.0 mi NW 10.4 mph - N/A   Clear
7:35 AM 19.4 °F 9.5 °F 17.6 °F 93% 30.08 in 5.0 mi NW 8.1 mph - N/A   Clear
7:55 AM 19.4 °F 11.5 °F 17.6 °F 93% 30.09 in 4.0 mi WNW 5.8 mph - N/A   Clear
8:15 AM 19.4 °F - 17.6 °F 93% 30.09 in 4.0 mi Calm Calm - N/A   Clear
8:35 AM 19.4 °F 14.3 °F 19.4 °F 100% 30.09 in 4.0 mi WNW 3.5 mph - N/A   Clear
8:55 AM 21.2 °F - 19.4 °F 93% 30.10 in 5.0 mi Calm Calm - N/A   Clear
9:15 AM 23.0 °F - 19.4 °F 86% 30.10 in 5.0 mi Calm Calm - N/A   Clear
9:35 AM 24.8 °F - 21.2 °F 86% 30.10 in 5.0 mi Calm Calm - N/A   Clear
9:55 AM 26.6 °F - 23.0 °F 86% 30.10 in 5.0 mi Calm Calm - N/A   Clear
10:15 AM 28.4 °F 24.6 °F 23.0 °F 80% 30.10 in 5.0 mi ENE 3.5 mph - N/A   Clear
10:35 AM 30.2 °F 26.7 °F 24.8 °F 80% 30.11 in 5.0 mi NNE 3.5 mph - N/A   Clear
10:55 AM 30.2 °F 26.7 °F 24.8 °F 80% 30.11 in 5.0 mi SSE 3.5 mph - N/A   Clear
11:15 AM 30.2 °F - 24.8 °F 80% 30.11 in 6.0 mi Calm Calm - N/A   Clear
11:35 AM 30.2 °F 25.4 °F 24.8 °F 80% 30.11 in 6.0 mi South 4.6 mph - N/A   Clear
11:55 AM 30.2 °F - 24.8 °F 80% 30.09 in 6.0 mi Calm Calm - N/A   Clear
12:15 PM 33.8 °F - 26.6 °F 75% 30.08 in 7.0 mi Calm Calm - N/A   Clear
12:35 PM 33.8 °F - 24.8 °F 70% 30.07 in 7.0 mi Calm Calm - N/A   Clear
12:55 PM 33.8 °F - 26.6 °F 75% 30.06 in 7.0 mi Calm Calm - N/A   Clear
1:15 PM 35.6 °F 32.8 °F 26.6 °F 70% 30.05 in 8.0 mi ESE 3.5 mph - N/A   Clear
1:35 PM 35.6 °F 31.7 °F 26.6 °F 70% 30.03 in 7.0 mi East 4.6 mph - N/A   Clear
1:55 PM 35.6 °F 29.2 °F 26.6 °F 70% 30.02 in 7.0 mi SSE 8.1 mph - N/A   Clear
2:15 PM 37.4 °F 32.1 °F 26.6 °F 65% 30.02 in 7.0 mi South 6.9 mph - N/A   Clear
2:35 PM 37.4 °F 31.4 °F 26.6 °F 65% 30.01 in 6.0 mi ESE 8.1 mph - N/A   Clear
2:55 PM 37.4 °F 30.8 °F 26.6 °F 65% 30.00 in 8.0 mi East 9.2 mph - N/A   Clear
3:15 PM 37.4 °F 31.4 °F 26.6 °F 65% 29.99 in 8.0 mi ESE 8.1 mph - N/A   Clear
3:35 PM 37.4 °F 30.3 °F 26.6 °F 65% 29.99 in 8.0 mi ESE 10.4 mph - N/A   Clear
3:55 PM 37.4 °F 32.8 °F 26.6 °F 65% 29.99 in 8.0 mi SE 5.8 mph - N/A   Clear
4:15 PM 37.4 °F 32.8 °F 26.6 °F 65% 29.98 in 8.0 mi ESE 5.8 mph - N/A   Clear
4:35 PM 37.4 °F 32.1 °F 26.6 °F 65% 29.98 in 8.0 mi East 6.9 mph - N/A   Clear
4:55 PM 35.6 °F 30.7 °F 26.6 °F 70% 29.98 in 5.0 mi East 5.8 mph - N/A   Clear
5:15 PM 35.6 °F 29.2 °F 26.6 °F 70% 29.98 in 7.0 mi East 8.1 mph - N/A   Clear
5:35 PM 35.6 °F 28.6 °F 26.6 °F 70% 29.98 in 8.0 mi East 9.2 mph - N/A   Clear
5:55 PM 35.6 °F 29.2 °F 26.6 °F 70% 29.97 in 8.0 mi East 8.1 mph - N/A   Clear
6:15 PM 33.8 °F 27.7 °F 26.6 °F 75% 29.97 in 8.0 mi East 6.9 mph - N/A   Clear
6:35 PM 33.8 °F 27.7 °F 26.6 °F 75% 29.97 in 7.0 mi ESE 6.9 mph - N/A   Clear
7:15 PM 33.8 °F 27.7 °F 26.6 °F 75% 29.95 in 7.0 mi ESE 6.9 mph - N/A   Clear
7:35 PM 32.0 °F 26.4 °F 26.6 °F 80% 29.95 in 7.0 mi ESE 5.8 mph - N/A   Clear
7:55 PM 33.8 °F 28.6 °F 26.6 °F 75% 29.94 in 7.0 mi East 5.8 mph - N/A   Clear
8:15 PM 33.8 °F 28.6 °F 30.2 °F 87% 29.94 in 7.0 mi ESE 5.8 mph - N/A   Clear
8:35 PM 33.8 °F 27.7 °F 28.4 °F 81% 29.94 in 7.0 mi ESE 6.9 mph - N/A   Clear
8:55 PM 33.8 °F 27.0 °F 28.4 °F 81% 29.93 in 6.0 mi SE 8.1 mph - N/A   Clear
9:15 PM 33.8 °F 27.0 °F 28.4 °F 81% 29.93 in 6.0 mi SE 8.1 mph - N/A   Clear
9:35 PM 33.8 °F 27.7 °F 28.4 °F 81% 29.94 in 7.0 mi SE 6.9 mph - N/A   Clear
9:55 PM 33.8 °F 27.0 °F 28.4 °F 81% 29.93 in 6.0 mi ESE 8.1 mph - N/A   Clear
10:15 PM 33.8 °F 27.7 °F 28.4 °F 81% 29.93 in 6.0 mi East 6.9 mph - N/A   Clear
10:35 PM 33.8 °F 28.6 °F 28.4 °F 81% 29.92 in 6.0 mi East 5.8 mph - N/A   Clear
10:55 PM 33.8 °F 27.7 °F 28.4 °F 81% 29.92 in 6.0 mi East 6.9 mph - N/A   Clear
11:15 PM 33.8 °F 27.7 °F 28.4 °F 81% 29.92 in 6.0 mi East 6.9 mph - N/A   Clear
11:35 PM 33.8 °F 29.6 °F 28.4 °F 81% 29.91 in 6.0 mi East 4.6 mph - N/A   Clear
11:55 PM 33.8 °F 27.7 °F 28.4 °F 81% 29.91 in 5.0 mi SE 6.9 mph - N/A   Clear